Hourly Data Report for October 16, 2019

SHEARWATER RCS
NOVA SCOTIA
Current Station Operator: ECCC - MSC

44°37'47.000" N
63°30'48.000" W
24.00 m
8205092
71264
AAW

Download Data

Hourly Data (October 2019)
Hourly Data Report for October 16, 2019
TIME
LST
Temp Definition
°C
Dew Point Definition
°C
Rel Hum Definition
%
Precip. Amount Definition
mm

Wind Dir Definition
10's deg

Wind Spd Definition
km/h
Visibility Definition
km
Stn Press Definition
kPa
Hmdx Definition


Wind Chill Definition


Weather Definition


00:00 7.7 4.3 79 0.0 33 10   101.44     LegendNANA
01:00 6.9 3.9 81 0.0 32 10   101.49     LegendNANA
02:00 6.5 3.9 84 0.0 33 9   101.51     LegendNANA
03:00 6.5 3.7 82 0.0 33 8   101.54     LegendNANA
04:00 6.4 3.3 81 0.0 33 9   101.53     LegendNANA
05:00 6.3 3.6 83 0.0 34 8   101.55     LegendNANA
06:00 5.2 3.1 86 0.0 32 8   101.55     LegendNANA
07:00 4.9 3.1 88 0.0 32 3   101.63     LegendNANA
08:00 7.7 4.9 82 0.0 32 7   101.68     LegendNANA
09:00 10.8 5.2 68 0.0 32 5   101.71     LegendNANA
10:00 12.7 2.3 49 0.0 1 6   101.68     LegendNANA
11:00 13.8 3.1 48 0.0 24 7   101.68     LegendNANA
12:00 14.6 -0.4 36 0.0 26 5   101.64     LegendNANA
13:00 14.7 3.5 47 0.0 24 8   101.64     LegendNANA
14:00 13.5 1.5 44 0.0 16 14   101.55     LegendNANA
15:00 13.4 3.4 51 0.0 17 12   101.52     LegendNANA
16:00 12.8 3.5 53 0.0 16 12   101.51     LegendNANA
17:00 11.4 4.7 63 0.0 17 13   101.52     LegendNANA
18:00 10.1 5.2 71 0.0 17 7   101.51     LegendNANA
19:00 7.9 5.1 82 0.0 0 1   101.52     LegendNANA
20:00 6.9 4.8 86 0.0 6 5   101.46     LegendNANA
21:00 7.5 5.8 89 0.0 7 7   101.44     LegendNANA
22:00 7.9 6.0 88 0.0 8 10   101.29     LegendNANA
23:00 10.2 7.9 86 0.0 12 11   101.20     LegendNANA

Notes on Data Quality.

Legend

  • E = Estimated
  • M = Missing
  • NA = Not Available*
  • [empty] = Indicates an unobserved value
Date modified: